Regional Weather Roundup
Issued by NWS

Home | Current Version | Previous Version | Text Only | Print | Product List | Glossary On
Versions: 1 2 3 4 5 6 7 8 9 10 11 12 13 14 15 16 17 18 19 20 21 22 23 24 25 26 27 28 29 30 31 32 33 34 35 36 37 38 39 40 41 42 43 44 45 46 47 48 49 50
000
ASUS44 KOUN 010000
RWROK

WEATHER ROUNDUP FOR OKLAHOMA
NATIONAL WEATHER SERVICE NORMAN OK
700 PM CDT SAT APR 30 2016

NOTE: "FAIR" INDICATES FEW OR NO CLOUDS BELOW 12,000 FEET WITH NO
      SIGNIFICANT WEATHER AND/OR OBSTRUCTIONS TO VISIBILITY.

OKZ001>007-009>012-014-015-017-010100-
NORTHWEST OKLAHOMA AND THE PANHANDLE

CITY           SKY/WX    TMP DP  RH WIND       PRES   REMARKS
GAGE           CLOUDY    60  39  45 NW13      29.87R
6HR MIN TEMP:  57; 6HR MAX TEMP:  65;

GUYMON         PTSUNNY   55  34  45 NW21G30   29.91R
$$

OKZ016-021>023-033>039-044-045-010100-
SOUTHWEST OKLAHOMA

CITY           SKY/WX    TMP DP  RH WIND       PRES   REMARKS
LAWTON/REGL    SUNNY     71  47  42 N8        29.81R
6HR MIN TEMP:  66; 6HR MAX TEMP:  73;

FREDERICK      SUNNY     71  47  42 NW8       29.80R
CLINTON        SUNNY     65  41  41 NW12      29.86R
HOBART         SUNNY     68  44  42 NW14      29.84R
$$

OKZ018>020-024>031-010100-
CENTRAL OKLAHOMA

CITY           SKY/WX    TMP DP  RH WIND       PRES   REMARKS
OKLAHOMA CITY  SUNNY     69  45  41 N15G24    29.80R
6HR MIN TEMP:  63; 6HR MAX TEMP:  71;

OKC/WILEY POST SUNNY     68  45  43 NW12      29.81R
OKC/TINKER AFB SUNNY     69  46  43 NW10      29.80R
STILLWATER     SUNNY     66  45  46 NW13G21   29.81R
GUTHRIE        SUNNY     67  44  43 NW9       29.81R
$$

OKZ008-013-054>072-010100-
NORTHEAST OKLAHOMA

CITY           SKY/WX    TMP DP  RH WIND       PRES   REMARKS
TULSA          SUNNY     68  51  54 NW12      29.78R
6HR MIN TEMP:  61; 6HR MAX TEMP:  70;

TULSA/JONES    SUNNY     70  50  49 VRB5      29.79R
PONCA CITY     SUNNY     64  44  48 NW10      29.82R
BARTLESVILLE   SUNNY     67  47  48 VRB3      29.80R
MUSKOGEE       SUNNY     68  53  58 NW7       29.80R
$$

OKZ032-040>043-046>053-073>077-010100-
SOUTH CENTRAL/SOUTHEAST OKLAHOMA

CITY           SKY/WX    TMP DP  RH WIND       PRES   REMARKS
MCALESTER      CLOUDY    70  61  73 VRB3      29.79R
$$





USA.gov is the U.S. government's official web portal to all federal, state and local government web resources and services.